Regional Weather Roundup
Issued by NWS

Home | Current Version | Previous Version | Graphics & Text | Print | Product List | Glossary On
Versions: 1 2 3 4 5 6 7 8 9 10 11 12 13 14 15 16 17 18 19 20 21 22 23 24 25 26 27 28 29 30 31 32 33 34 35 36 37 38 39 40 41 42 43 44 45 46 47 48 49 50
000
ASUS43 KBIS 271259
RWRND

NORTH DAKOTA REGIONAL WEATHER ROUNDUP
NATIONAL WEATHER SERVICE BISMARCK ND
700 AM CST THU NOV 27 2014

NOTE: "FAIR" INDICATES FEW OR NO CLOUDS BELOW 12,000 FEET WITH NO
SIGNIFICANT WEATHER AND/OR OBSTRUCTIONS TO VISIBILITY.


NDZ001>003-009>011-017-271400-
NORTHWEST NORTH DAKOTA

CITY           SKY/WX    TMP DP  RH WIND       PRES   REMARKS
WILLISTON      CLOUDY    11   6  81 CALM      30.19F
MINOT          CLOUDY    -6 -11  79 CALM      30.28F
$$

NDZ018>021-031>035-040>046-271400-
SOUTHWEST NORTH DAKOTA

CITY           SKY/WX    TMP DP  RH WIND       PRES   REMARKS
BISMARCK       MOCLDY    -4  -9  79 E6        30.36F WCI -16
DICKINSON      CLOUDY    14  11  87 S13       30.14F WCI   0
GARRISON         N/A      9   5  84 S15       30.28F WCI  -8
HETTINGER ARPT CLOUDY    12  10  92 SE12      30.18F WCI  -2
$$

NDZ004>008-012>016-024-026-027-054-271400-
NORTHEAST NORTH DAKOTA

CITY           SKY/WX    TMP DP  RH WIND       PRES   REMARKS
GRAND FORKS    PTCLDY   -16 -20  82 S6        30.51S WCI -31
DEVILS LAKE    PTCLDY    -6 -17  59 S5        30.37S WCI -17
$$

NDZ022-023-025-028>030-036>039-047>053-271400-
SOUTHEAST NORTH DAKOTA

CITY           SKY/WX    TMP DP  RH WIND       PRES   REMARKS
FARGO          MOCLDY   -12 -18  74 CALM      30.53F
$$




USA.gov is the U.S. government's official web portal to all federal, state and local government web resources and services.